Regional Weather Roundup
Issued by NWS Boston, MA

Home | Current Version | Previous Version | Text Only | Print | Product List | Glossary On
Versions: 1 2 3 4 5 6 7 8 9 10 11 12 13 14 15 16 17 18 19 20 21 22 23 24 25 26 27 28 29 30 31 32 33 34 35 36 37 38 39 40 41 42 43 44 45 46 47 48 49 50
000
ASUS41 KBOX 050510
RWRBOX

REGIONAL WEATHER ROUNDUP
NATIONAL WEATHER SERVICE TAUNTON MA
1200 AM EST MON DEC 05 2016

NOTE:  "FAIR" INDICATES FEW OR NO CLOUDS BELOW 12,000 FEET WITH NO
SIGNIFICANT WEATHER AND/OR OBSTRUCTIONS TO VISIBILITY.

MAZALL-050600-
EASTERN MASSACHUSETTS

CITY           SKY/WX    TMP DP  RH WIND       PRES   REMARKS
BOSTON         PTCLDY    32  21  64 W5        30.18S WCI  27
BEVERLY        PTCLDY    26  20  77 W3        30.16S
LAWRENCE       PTCLDY    26  21  81 CALM      30.18F
BEDFORD        CLOUDY    24  18  77 CALM      30.16F
BLUE HILL        N/A     28  19  69 N7        30.12F WCI  21
NORWOOD        CLOUDY    23  18  81 CALM      30.16F
MARSHFIELD     MOCLDY    28  23  80 W5        30.16F WCI  23
PLYMOUTH       CLOUDY    26  20  77 CALM      30.16F
TAUNTON        CLOUDY    23  20  88 CALM      30.16F
NEW BEDFORD    CLOUDY    27  21  78 CALM      30.16F
$$

MAZALL-050600-
CAPE COD AND THE ISLANDS

CITY           SKY/WX    TMP DP  RH WIND       PRES   REMARKS
FALMOUTH         N/A     28  21  74 MISG      30.17S
HYANNIS        PTCLDY    26  20  77 CALM      30.14F
CHATHAM        CLOUDY    29  24  82 W3        30.15F
PROVINCETOWN   CLOUDY    37  29  72 NW6       30.15F
NANTUCKET      CLOUDY    32  23  69 W3        30.15F
MARTHAS VNYRD  PTCLDY    23  19  85 N5        30.15F WCI  17
$$

MAZALL-050600-
CENTRAL AND WESTERN MASSACHUSETTS

CITY           SKY/WX    TMP DP  RH WIND       PRES   REMARKS
WORCESTER      CLOUDY    27  18  69 NE5       30.11F WCI  22
FITCHBURG      CLOUDY    25  20  81 CALM      30.16F
ORANGE         CLOUDY    23  21  92 CALM      30.14F
SPRINGFIELD    MOCLDY    27  21  77 CALM      30.14F
WESTFIELD      CLOUDY    27  23  85 CALM      30.15F
NORTH ADAMS    CLOUDY    25  19  78 CALM      30.11F
PITTSFIELD     CLOUDY    24  19  81 E3        30.07F
$$

RIZALL-050600-
RHODE ISLAND

CITY           SKY/WX    TMP DP  RH WIND       PRES   REMARKS
PROVIDENCE     CLOUDY    31  21  66 NE5       30.17F WCI  26
NEWPORT        MOCLDY    32  24  72 NE6       30.15F WCI  26
BLOCK ISLAND   MOCLDY    38  26  62 E6        30.15F
SMITHFIELD     CLOUDY    27  22  81 CALM      30.14F
WESTERLY       MOCLDY    31  21  66 N3        30.16F
$$

CTZALL-050600-
CONNECTICUT

CITY           SKY/WX    TMP DP  RH WIND       PRES   REMARKS
BRADLEY INTL   CLOUDY    30  20  66 NW3       30.16F
HARTFORD       MOCLDY    32  22  66 CALM      30.16F
BRIDGEPORT     MOCLDY    36  22  56 NE5       30.15F
GROTON         MOCLDY    34  25  69 N3        30.15F
NEW HAVEN      MOCLDY    33  23  66 N3        30.15F
CHESTER        FAIR      32  21  64 CALM      30.14F
MERIDEN        MOCLDY    32  24  72 CALM      30.15F
WILLIMANTIC    MOCLDY    29  24  82 CALM      30.16F
OXFORD         CLOUDY    30  19  64 E5        30.13F WCI  25
$$

MEZ002-015-021-024-NHZ003-005-008-011-012-014-VTZ005-008-050600-
NORTHERN NEW ENGLAND

CITY           SKY/WX    TMP DP  RH WIND       PRES   REMARKS
PORTLAND ME    CLEAR     25  17  72 NW3       30.16F
BANGOR ME      CLEAR     19  15  84 CALM      30.16F
CONCORD NH     CLOUDY    21  17  84 CALM      30.16S
MANCHESTER NH  CLOUDY    26  19  74 CALM      30.15S
NASHUA NH      CLOUDY    24  21  88 W3        30.17F
PORTSMOUTH NH  MOCLDY    24  18  76 W5        30.15F WCI  18
JAFFREY NH     CLOUDY    23  17  78 CALM      30.12F
KEENE NH       CLOUDY    21  19  92 CALM      30.14F
BURLINGTON VT  CLEAR     26  19  74 SE6       30.13F WCI  19
MT. WASHINGTON PTCLDY    21   0  39 SW12        N/A  WCI   9
$$

NYZ052-076-050600-
EASTERN NEW YORK

CITY           SKY/WX    TMP DP  RH WIND       PRES   REMARKS
ALBANY         CLOUDY    26  21  81 CALM      30.13F
NEW YORK CITY  CLOUDY    41  24  51 E8        30.13F
$$

ANZALL-050600-
MARINE OBSERVATIONS

STATION/POSITION TIME  TEMP    WIND        PRES    VSBY  WAVE
                       AIR SEA DIR/SP/G                  HT/PER
                 (UTC) (F)     (DEG/KT/KT) (MB)    (MI)  (FT/S)
BOSTON BUOY      0450   37 50  310/  6/  8 1020.3F         2/ 5
BUZZARDS BAY     0400   37      30/ 13/ 14 1021.8F
NANTUCKET SOUND  NOT AVBL
MASS BAY-STELLWA 0404   39 49   40/ 10/ 12 1020.7F  1 7/8  2/ 5
ISLE OF SHOALS   0400   35      30/ 12/ 13 1021.1F
S OF BLOCK IS    0455      55                N/A           1/ 8
$$

......................KEY.........................
  SKY/WX - SKY CONDITION/PRESENT WEATHER
  TMP    - TEMPERATURE IN FAHRENHEIT
  DWPT   - DEWPOINT IN FAHRENHEIT
  RH     - RELATIVE HUMIDITY IN PERCENT
  WIND   - DIRECTION AND SPEED IN MPH
  PRES   - MEAN SEA LEVEL PRESSURE IN INCHES OF HG
  WCI    - WIND CHILL INDEX
  VSB    - VISIBILITY IN MILES
  HX     - HEAT INDEX
  TC     - TEMPERATURE IN CELSIUS
  VRB    - VARIABLE WIND DIRECTION
  N/A    - NOT AVAILABLE



USA.gov is the U.S. government's official web portal to all federal, state and local government web resources and services.